Location: Wanzleben
(52.0609°N, 11.4408°E)
Time: 02:37:54
(UTC+00:00)

NOSS 3-2 (C) - Pass Details

Date: 18 September 2020
Orbit: 795 x 1418 km, 63.4° (Epoch: 02 October)

Event Time Altitude Azimuth Distance (km) Brightness Sun altitude
Rises 18:43:02 0° 312° (NW) 3,844 8.0 -13.1°
Reaches altitude 10° 18:45:32 10° 315° (NW) 2,972 7.1 -13.5°
Maximum altitude 18:52:45 72° 40° (NE) 1,289 4.0 -14.5°
Enters shadow 18:58:45 20° 122° (ESE) 2,640 5.1 -15.4°
